{"data":{"norad_id":61209,"epoch":"2026-09-21T12:57:47.387520Z","epoch_age_seconds":102159,"freshness":"FRESH","line1":"1 61209U 24171K   26264.54013180  .00000342  00000+0  76837-5 0  9999","line2":"2 61209  53.1592 290.4666 0001137  93.5550 266.5598 15.69704511116072","mean_motion":15.69704511,"eccentricity":0.0001137,"inclination_deg":53.1592,"raan_deg":290.4666,"arg_perigee_deg":93.555,"mean_anomaly_deg":266.5598,"bstar":7.6837e-6,"rev_number":11607,"period_min":91.737011004869,"perigee_km":358.97636098811,"apogee_km":360.50855477684,"semimajor_km":6737.8794578825,"source":"CELESTRAK","updated_at":"2026-09-22T09:00:49.340571Z"}}